カタログに戻る

OV1-9

運用中軍事PO
NORAD 2610·PAYLOAD·🇺🇸 United States

打ち上げ Dec 11, 1966 から Vandenberg Space Force Base

Loading…

次のパス (今後24時間)

TLE

最新Source: Space-Track

元期: Sep 14, 2026, 07:56 UTC

1 02610U 66111A   26257.33095597  .00000474  00000-0  20023-3 0  9992
2 02610  99.1108  25.2946 2271364 240.7957  94.7283 10.39947890242300

AllMySatでOV1-9をリアルタイム追跡

Download on the App Store